Regional Weather Roundup
Issued by NWS Charleston, SC

Current Version | Previous Version | Graphics & Text | Print | Product List | Glossary On
Versions: 1 2 3 4 5 6 7 8 9 10 11 12 13 14 15 16 17 18 19 20 21 22 23 24 25 26 27 28 29 30 31 32 33 34 35 36 37 38 39 40 41 42 43 44 45 46 47 48 49 50
251
ASUS42 KCHS 272227
RWRCHS

REGIONAL WEATHER ROUNDUP
NATIONAL WEATHER SERVICE CHARLESTON SC
600 PM EDT THU APR 27 2017

NOTE: "FAIR" INDICATES FEW OR NO CLOUDS BELOW 12,000 FEET WITH NO
SIGNIFICANT WEATHER AND/OR OBSTRUCTIONS TO VISIBILITY.

NOT ALL STATIONS ARE QUALITY CONTROLLED. USE DATA WITH CAUTION...
ESPECIALLY DEWPOINT OBSERVATIONS.

SCZ027-030-031-034>040-042>050-272300-
...SOUTHEAST SOUTH CAROLINA...

CITY           SKY/WX    TMP DP  RH WIND       PRES   REMARKS
N CHARLESTON   CLOUDY    81  59  47 S15G24    29.90S
WATERFRONT PRK   N/A     78  68  71 S15       29.89R
JOHNS ISLAND   FAIR      77  70  78 S16       29.91S
PINOPOLIS        N/A     81  63  54 S5        29.83R
MONCKS CORNER  FAIR      79  55  44 S10G17    29.89S
SUMMERVILLE    FAIR      79  59  50 S5        29.90S
BEAUFORT MCAS  CLOUDY    81  63  54 S9        29.89S
BEAUFORT ARPT  FAIR      79  63  57 S8G17     29.88S HAZE
HILTON HEAD IS SUNNY     79  68  69 S12G17    29.90S
WALTERBORO     CLOUDY    81  59  47 S10G21    29.88F
ALLENDALE      FAIR      82  64  54 S9        29.83F

...SOUTHERN MIDLANDS AND PEE DEE...

CITY           SKY/WX    TMP DP  RH WIND       PRES   REMARKS
GEORGETOWN     FAIR      77  68  73 S12G20    29.93S
KINGSTREE      FAIR      79  61  53 SE8       29.87F
ORANGEBURG     CLOUDY    79  67  66 S9        29.86S
BARNWELL       FAIR      81  70  69 S8        29.82F
AIKEN          CLOUDY    77  66  69 S3        29.88R
MANNING        FAIR      77  63  61 S20G28    29.87F
COLUMBIA       CLOUDY    82  66  58 SW7       29.84R
SUMTER         CLOUDY    79  66  64 SE9       29.82F
FLORENCE       CLOUDY    80  66  62 S13       29.87S
MYRTLE BEACH   SUNNY     75  66  73 S12       29.93R
N MYRTLE BEACH CLOUDY    74  67  78 S10       29.93R

$$

GAZ063-065-086>088-099>101-113>116-118-119-134>141-150-272300-
...SOUTHEAST GEORGIA...

CITY           SKY/WX    TMP DP  RH WIND       PRES   REMARKS
SAVANNAH ARPT  CLOUDY    84  58  40 S16       29.87R
HUNTER AAF     CLOUDY    82  66  57 S8        29.85S
FORT STEWART   MOSUNNY   85  63  46 SE9       29.84R
STATESBORO     CLOUDY    87  63  44 S7        29.85S
SYLVANIA       CLOUDY   N/A N/A N/A CALM      29.85F
CLAXTON        FAIR      87  67  51 CALM      29.85S HX  90

...CSRA...CENTRAL AND FAR SOUTHEAST GEORGIA...

CITY           SKY/WX    TMP DP  RH WIND       PRES   REMARKS
THOMSON        CLOUDY    78  67  69 W8        29.89S
AUGUSTA-BUSH   LGT RAIN  78  68  71 SW7       29.82R
AUGUSTA-DANIEL CLOUDY    80  65  59 S8        29.84R
SWAINSBORO     MOCLDY    82  68  61 CALM      29.86S
VIDALIA        CLOUDY    88  63  42 SW10G17   29.85S
EASTMAN        CLOUDY    83  54  36 CALM      29.88R
HAZLEHURST     FAIR      88  62  42 SW13G24   29.85S
ALMA           PTSUNNY   87  64  46 SW16      29.86R
WAYCROSS       PTSUNNY   91  69  48 W16G22    29.87R HX  96
JESUP          FAIR      90  59  35 SW9       29.87R
BAXLEY         FAIR      88  70  55 SW10G17   29.86R HX  92
BRUNSWICK      SUNNY     82  68  61 S10G18    29.89S
SAINT SIMONS   SUNNY     80  67  64 SE12      29.89R

$$

SCZ027-028-034-036>038-045-046-048>050-GAZ119-141-272300-
...LAKE AND SUPPLEMENTAL COASTAL OBSERVATIONS...

STATION/POSITION TIME  TEMP    WIND        PRES    WAVE   SWELL
                       AIR SEA DIR/SP/G            HT/PER HT/PER/DIR
                 (UTC) (F)     (DEG/KT/KT) (MB)    (FT/S) (FT/S/D)
WINYAH BAY       2145   77     190/ 11     1013.0S
LAKE MURRAY      2150   76     290/  7/ 12 1010.8R
ACE BASIN NERRS  2145   80     170/  2     1012.0S
FORT PULASKI     2200   78 75  170/ 10/ 14 1012.2
SAPELO ISLAND    2145   83     160/ 13     1012.0S

$$

ANZ835-935-AMZ111-154-330-350-352-354-370-450-454-472-272300-
...C-MAN AND BUOY OBSERVATIONS...

STATION/POSITION TIME  TEMP    WIND        PRES    WAVE   SWELL
                       AIR SEA DIR/SP/G            HT/PER HT/PER/DIR
                 (UTC) (F)     (DEG/KT/KT) (MB)    (FT/S) (FT/S/D)
BUOY 41004       2200   76 74  180/ 10/ 12 1013.5
BUOY 41008       2150   75 73  160/ 14/ 16 1011.9R   3/ 8   2/120/ 8
FOLLY BEACH CMAN 2200   76     170/ 14/ 16 1013.5F
CAPERS NEARSHORE 2208   76 74  190/ 10/ 16 1012.9S
FRIPP NEARSHORE  2108   75 74  180/ 14/ 17 1012.2R


STATION/POSITION TIME  TEMP    WIND        PRES    WAVE   SWELL
                       AIR SEA DIR/SP/G            HT/PER HT/PER/DIR
                 (UTC) (F)     (DEG/KT/KT) (MB)    (FT/S) (FT/S/D)
5E ST. MARYS GA  2200      74                N/A     3/ 5
FRYING PAN BUOY  2200   76 74  180/ 12/ 14 1013.6
BUOY 41025       2150   78 78  190/ 17/ 21 1013.5F   5/ 8   3/130/ 8
CAPE LOOKOUT NC  2200   75     210/ 10/ 15 1013.5R
BUOY 41002       2150   74 75  160/ 14/ 16 1016.6R   4/ 8   3/100/ 8
BUOY 41010       2210   78 78  160/ 10/ 14 1014.3
ST AUGUSTINE FL  2200   76 78  160/ 15/ 17 1013.4R


$$




USA.gov is the U.S. government's official web portal to all federal, state and local government web resources and services.